Probability
0 0 0 0 0 1 0 0 0 1 1 1 3 7 9 9 9 8 6 4 5 6 8 8 8 9 10 10 9 5 2 1 1 0 0 1 2 2 3 5 6 6 5 4
0 0 0 0 0 1 1 1 1 2 2 4 9 14 14 13 12 10 6 3 3 4 6 7 7 8 9 9 7 4 2 1 1 0 0 0 1 1 1 3 5 5 5 5
0 0 0 0 1 2 3 4 4 6 9 14 20 20 16 15 14 11 6 3 2 2 2 3 3 4 5 6 5 2 1 0 0 0 0 0 0 0 0 1 2 3 4 3
0 0 0 1 2 2 4 7 11 16 24 30 29 20 13 10 9 8 5 2 1 0 0 0 0 1 1 2 2 1 0 0 0 0 0 0 0 0 0 0 0 1 1 2
0 0 0 1 3 4 6 11 22 33 39 40 32 20 9 4 4 4 3 1 0 0 0 0 0 0 0 0 0 0 0 0 0 0 0 0 0 0 0 0 0 0 0 1
0 0 0 2 5 6 6 14 29 42 43 36 26 15 6 2 1 1 1 0 0 0 0 0 0 0 0 0 0 0 0 0 0 0 0 0 0 0 0 0 0 0 0 0
0 0 0 3 6 6 5 12 26 34 32 22 13 7 2 0 0 0 0 0 0 0 0 0 0 0 0 0 0 0 0 0 0 0 0 0 0 0 0 0 0 0 0 0
0 0 1 4 6 5 5 11 20 21 15 8 3 1 0 0 0 0 0 0 0 0 0 0 0 0 0 0 0 0 0 0 0 0 0 0 0 0 0 0 0 0 0 0
0 0 1 4 5 5 6 12 16 11 5 1 0 0 0 0 0 0 0 0 0 0 0 0 0 0 0 0 0 0 0 0 0 0 0 0 0 0 0 0 0 0 0 0
0 0 0 2 4 4 6 9 8 4 1 0 0 0 0 0 0 0 0 0 0 0 0 0 0 0 0 0 0 0 0 0 0 0 0 0 0 0 0 0 0 0 0 0
0 0 0 2 2 3 3 3 2 0 0 0 0 0 0 0 0 0 0 0 0 0 0 0 0 0 0 0 0 0 0 0 0 0 0 0 0 0 0 0 0 0 0 0
0 0 0 1 1 1 1 1 0 0 0 0 0 0 0 0 0 0 0 0 0 0 0 0 0 0 0 0 0 0 0 0 0 0 0 0 0 0 0 0 0 0 0 0
0 0 0 0 0 0 0 0 0 0 0 0 0 0 0 0 0 0 0 0 0 0 0 0 0 0 0 0 0 0 0 0 0 0 0 0 0 0 0 0 0 0 0 0
0 0 0 0 0 0 0 0 0 0 0 0 0 0 0 0 0 0 0 0 0 0 0 0 0 0 0 0 0 0 0 0 0 0 0 0 0 0 0 0 0 0 0 0
0 0 0 0 0 0 0 0 0 0 0 0 0 0 0 0 0 0 0 0 0 0 0 0 0 0 0 0 0 0 0 0 0 0 0 0 0 0 0 0 0 0 0 0
0 0 0 0 0 0 0 0 0 0 0 0 0 0 0 0 0 0 0 0 0 0 0 0 0 0 0 0 0 0 0 0 0 0 0 0 0 0 0 0 0 0 0 0
0 0 0 0 0 0 0 0 0 0 0 0 0 0 0 0 0 0 0 0 0 0 0 0 0 0 0 0 0 0 0 0 0 0 0 0 0 0 0 0 0 0 0 0
0 0 0 0 0 0 0 0 0 0 0 0 0 0 0 0 0 0 0 0 0 0 0 0 0 0 0 0 0 0 0 0 0 0 0 0 0 0 0 0 0 0 0 0
0 0 0 0 0 0 0 0 0 0 0 0 0 0 0 0 0 0 0 0 0 0 0 0 0 0 0 0 0 0 0 0 0 0 0 0 0 0 0 0 0 0 0 0
0 0 0 0 0 0 0 0 0 0 0 0 0 0 0 0 0 0 0 0 0 0 0 0 0 0 0 0 0 0 0 0 0 0 0 0 0 0 0 0 0 0 0 0
0 0 0 0 0 0 0 0 0 0 0 0 0 0 0 0 0 0 0 0 0 0 0 0 0 0 0 0 0 0 0 0 0 0 0 0 0 0 0 0 0 0 0 0
0 0 0 0 0 0 0 0 0 0 0 0 0 0 0 0 0 0 0 0 0 0 0 0 0 0 0 0 0 0 0 0 0 0 0 0 0 0 0 0 0 0 0 0
0 0 0 0 0 0 0 0 0 0 0 0 0 0 0 0 0 0 0 0 0 0 0 0 0 0 0 0 0 0 0 0 0 0 0 0 0 0 0 0 0 0 0 0
0 0 0 0 0 0 0 0 0 0 0 0 0 0 0 0 0 0 0 0 0 0 0 0 0 0 0 0 0 0 0 0 0 0 0 0 0 0 0 0 0 0 0 0
0 0 0 0 0 0 0 0 0 0 0 0 0 0 0 0 0 0 0 0 0 0 0 0 0 0 0 0 0 0 0 0 0 0 0 0 0 0 0 0 0 0 0 0
0 0 0 0 0 0 0 0 0 0 0 0 0 0 0 0 0 0 0 0 0 0 0 0 0 0 0 0 0 0 0 0 0 0 0 0 0 0 0 0 0 0 0 0
0 0 0 0 0 0 0 0 0 0 0 0 0 0 0 0 0 0 0 0 0 0 0 0 0 0 0 0 0 0 0 0 0 0 0 0 0 0 0 0 0 0 0 0
Wind_Speed
4 5 3 4 7 5 5 8 8 9 10 11 11 8 6 6 8 8 7 6 6 6 5 5 5 4 5 5 5 6 6 5 4 3 2 2 2 1 1 2 2 2 3 3
4 3 4 6 6 5 5 4 4 6 6 6 6 5 6 7 10 10 9 9 8 8 8 7 7 7 7 7 6 7 7 5 4 3 2 2 2 2 2 1 0 1 1 2
4 4 4 5 3 3 3 2 7 9 9 9 8 8 7 9 11 12 11 10 10 9 9 9 8 9 9 8 9 9 8 7 6 6 5 4 4 4 4 3 2 2 1 2
2 1 7 6 2 2 2 2 3 6 9 12 11 9 7 8 12 13 12 11 10 10 10 9 9 10 10 10 10 10 9 8 7 6 6 5 5 4 3 3 3 3 3 3
3 4 6 4 2 2 2 3 1 11 16 17 17 15 11 8 11 13 12 11 10 9 10 10 9 9 11 10 10 10 9 7 6 6 6 5 5 4 3 3 3 3 2 3
3 4 6 4 2 2 2 2 0 10 17 17 11 9 6 8 13 14 13 11 11 10 11 11 8 9 12 10 9 8 7 6 5 5 5 5 4 3 3 3 3 3 4 3
4 5 6 2 3 2 3 5 2 6 10 8 4 8 13 13 13 13 13 11 11 11 10 8 7 10 11 9 7 5 5 5 5 4 4 4 3 3 4 4 4 4 5 4
3 4 6 1 0 3 4 2 6 7 8 12 16 17 15 14 14 13 12 11 10 11 9 7 7 9 10 7 5 5 5 5 4 4 3 3 3 3 3 3 4 3 3 3
4 4 3 2 2 3 2 4 7 9 11 18 19 17 15 13 12 12 11 9 8 10 9 7 6 8 8 5 5 6 6 5 4 4 4 3 3 3 2 2 2 2 2 2
2 2 3 2 0 1 2 6 9 14 16 17 19 17 15 13 11 10 9 8 8 9 9 7 5 6 6 4 5 6 6 4 4 4 4 4 3 2 2 2 2 2 2 2
2 2 2 3 1 4 8 12 16 16 14 14 18 17 14 12 11 9 8 7 7 8 8 6 5 5 4 4 5 6 5 4 4 4 3 3 3 2 2 2 3 3 2 2
3 3 2 0 3 9 13 15 16 17 15 13 14 15 13 10 9 9 8 7 7 7 6 5 5 4 3 4 5 5 4 4 3 3 3 3 3 4 7 6 8 8 7 5
2 3 4 6 8 11 15 15 15 15 16 15 12 12 12 10 7 8 8 8 7 6 6 5 5 4 3 4 5 5 4 3 2 3 3 3 3 3 3 5 9 10 9 8
6 8 9 8 10 12 15 17 17 15 13 13 11 11 11 10 8 8 7 6 7 7 6 6 6 4 3 4 5 5 4 4 4 3 3 3 4 3 3 3 3 3 5 8
6 9 11 11 13 13 14 16 17 14 13 11 10 10 10 10 8 7 6 7 8 7 6 6 6 4 3 5 5 5 4 3 3 3 3 4 4 4 4 4 3 3 3 5
12 12 13 15 14 13 14 15 14 12 10 10 9 9 8 8 7 6 6 7 8 6 5 5 5 3 4 5 5 4 4 7 6 4 4 4 4 4 4 4 3 3 3 3
13 11 13 14 13 12 11 11 11 10 9 9 8 8 8 8 8 7 6 6 7 6 5 5 4 4 5 5 5 3 4 5 10 6 4 4 4 3 3 3 3 3 3 4
11 12 12 13 13 12 10 10 10 9 9 8 8 8 8 7 7 6 6 7 8 7 6 5 5 6 6 6 4 4 4 4 4 4 3 3 3 3 3 3 3 3 3 4
14 14 13 12 11 11 10 9 9 8 8 8 9 8 7 6 6 6 7 8 8 6 3 5 8 7 6 7 7 5 5 4 4 3 3 4 4 3 3 3 3 3 3 4
14 13 13 12 11 10 9 8 8 8 7 8 8 8 7 6 7 7 8 7 3 3 3 5 6 5 5 5 8 4 4 4 3 3 3 3 2 3 3 3 3 3 3 4
13 12 12 11 10 9 8 8 9 8 7 8 8 7 7 6 7 7 7 5 3 4 5 7 5 3 3 4 6 4 4 3 3 2 2 2 2 3 3 3 3 3 4 4
10 10 10 9 9 7 6 7 7 8 7 7 7 7 8 7 7 7 5 4 3 5 5 4 3 4 5 6 4 3 3 3 2 2 2 2 2 3 3 3 3 4 4 4
8 8 7 7 7 5 5 5 6 6 6 6 6 7 7 6 5 6 4 2 3 6 4 3 4 7 7 4 2 2 2 2 2 2 2 2 2 2 2 3 3 4 4 4
6 6 5 5 6 6 5 4 5 5 6 6 6 6 7 6 4 3 4 6 6 6 3 3 5 5 5 2 2 2 2 2 2 2 2 2 3 3 3 3 3 4 4 5
5 5 5 6 5 4 5 6 7 6 6 5 5 5 5 4 5 4 4 5 6 4 2 2 3 4 2 2 2 2 2 2 2 2 3 3 3 3 3 3 3 3 4 4
4 4 4 4 3 3 4 4 4 4 4 4 4 4 4 4 5 5 4 4 4 3 1 0 1 2 2 2 2 2 2 3 4 3 3 3 3 3 3 3 5 4 4 4
4 3 3 3 3 3 4 4 4 4 4 5 4 4 4 4 4 4 3 2 2 2 1 1 2 2 2 2 3 3 3 3 3 3 3 3 3 2 3 3 3 3 4 4
Wind_Direction
250 248 232 252 264 226 190 183 178 199 184 201 200 186 167 144 130 122 128 127 131 133 133 135 134 135 134 136 137 147 144 150 165 156 150 146 140 180 199 193 197 196 193 195
309 314 313 289 276 253 225 192 185 167 201 206 178 135 118 122 124 119 114 108 103 100 97 96 102 106 102 102 101 103 107 108 109 105 101 90 83 76 72 69 114 138 189 187
277 301 333 278 270 268 254 199 169 188 198 158 144 138 137 130 121 117 115 109 102 97 93 91 89 96 98 96 95 94 93 93 89 86 83 84 85 74 66 64 76 89 95 95
234 331 248 242 294 316 275 274 207 173 146 134 121 103 87 108 118 113 108 103 98 97 92 87 86 87 90 88 88 88 83 80 80 83 82 75 71 68 63 63 69 67 70 77
176 221 261 289 320 22 23 324 49 136 131 123 115 89 67 77 103 108 106 101 96 94 94 89 86 89 89 84 86 87 86 83 79 82 82 76 72 65 57 60 53 51 65 74
181 204 230 232 301 322 56 278 249 139 142 142 130 119 134 118 108 104 100 98 96 92 89 86 85 90 90 86 84 83 85 87 85 85 85 78 69 61 52 60 60 63 59 59
191 221 251 253 300 346 187 221 179 149 143 131 91 121 129 121 109 106 103 100 97 93 88 86 87 90 89 86 85 88 88 83 78 80 89 86 68 61 70 70 63 61 66 57
183 207 240 271 287 193 213 202 150 129 115 104 106 111 118 118 114 111 107 103 101 98 93 85 85 89 87 83 86 82 75 70 62 56 63 77 75 63 70 83 79 71 73 61
211 224 260 248 232 274 210 136 124 124 121 125 123 125 123 120 118 114 112 109 106 105 99 89 85 90 90 86 81 74 64 52 41 39 36 41 64 67 62 69 81 75 75 69
263 284 289 289 271 287 149 122 122 126 131 133 127 127 126 124 120 118 116 115 111 106 103 99 93 92 98 93 81 72 61 45 37 37 24 24 33 52 64 62 69 68 70 66
253 268 318 341 85 137 113 111 118 120 125 128 126 126 125 123 121 119 116 112 111 111 111 113 105 95 92 88 78 68 55 42 35 34 32 28 29 40 62 65 114 113 105 100
216 214 159 305 85 116 113 116 120 120 116 115 120 121 120 118 117 117 114 112 112 114 116 118 111 98 85 84 84 74 49 32 31 29 29 36 41 40 48 67 74 82 89 94
136 110 94 96 95 107 113 116 117 118 119 116 113 117 116 114 112 111 112 115 119 122 122 119 109 94 79 78 78 72 57 34 28 26 32 34 45 61 49 39 53 60 62 61
123 112 95 97 102 104 107 107 106 104 105 110 113 112 110 108 108 109 113 116 115 111 109 107 99 86 74 76 68 56 45 35 37 38 43 46 52 58 66 62 38 20 28 36
104 108 114 109 101 99 104 106 105 105 106 105 107 110 111 111 111 111 110 109 105 100 99 101 94 78 66 72 65 51 41 34 46 54 55 57 58 60 59 56 50 26 8 5
104 100 103 102 102 103 105 107 110 111 112 111 110 111 111 111 107 101 102 107 107 106 106 101 93 78 68 66 59 44 38 53 67 67 61 59 55 55 51 47 39 26 14 355
114 113 112 109 106 106 106 108 111 114 112 112 114 112 106 100 94 92 93 97 102 102 97 95 90 76 62 56 54 46 44 55 69 70 63 61 58 55 50 45 30 13 354 354
103 108 113 116 116 112 107 104 105 107 109 111 107 101 102 105 107 108 106 98 89 75 65 78 86 74 56 46 53 57 66 69 68 69 61 54 52 49 43 33 15 3 343 342
100 101 100 100 103 104 103 104 104 103 104 103 101 100 100 102 105 105 103 97 96 89 59 64 77 67 51 49 66 65 73 74 67 58 56 49 45 30 21 10 357 347 338 334
94 94 94 93 93 99 102 102 101 97 98 101 99 97 95 97 102 100 91 82 82 108 101 81 72 60 45 55 73 71 72 72 66 55 45 39 29 12 2 356 351 340 333 328
95 94 93 93 92 93 99 103 105 104 103 104 106 109 109 104 104 105 103 95 68 89 90 82 74 61 51 68 73 73 72 70 61 50 36 24 14 2 352 347 341 335 332 328
93 93 93 93 93 91 93 98 105 107 104 104 108 112 111 108 103 94 90 112 121 107 93 79 72 71 76 74 71 72 73 67 51 36 29 18 8 358 349 344 339 336 334 332
91 93 94 97 102 105 100 101 108 112 113 115 119 123 124 127 128 124 118 132 125 110 101 94 93 83 78 70 68 77 74 63 48 31 24 14 5 2 356 352 349 346 345 346
88 87 90 95 96 99 103 104 105 105 106 107 112 121 124 117 100 102 128 135 129 117 112 115 100 89 80 68 69 74 66 56 45 30 25 19 14 13 7 4 360 355 354 355
93 90 88 89 89 98 111 108 99 95 95 96 100 104 112 126 134 140 134 135 135 127 128 127 110 94 80 77 85 86 71 63 63 52 36 27 21 18 13 9 7 0 354 350
103 98 95 98 111 115 112 111 110 113 112 108 101 104 108 112 121 127 132 141 146 151 163 191 128 106 109 104 92 82 73 64 58 56 50 40 29 26 18 13 9 359 349 344
83 88 90 83 81 96 106 112 117 122 128 129 126 126 127 127 128 135 141 147 153 156 157 138 123 121 116 105 95 91 88 83 74 66 55 40 28 18 10 10 359 349 343 340